Location: Sherrills_Ford_Terrell
(35.6000°N, 80.9830°W)
Time: 00:22:16
(UTC-04:00)

ISS - Visible Passes

Search period start: 05 July 2015 00:00
Search period end: 15 July 2015 00:00
Orbit: 398 x 403 km, 51.6° (Epoch: 04 July)

Date Brightness Start Highest point End Pass type
(mag) Time Alt. Az. Time Alt. Az. Time Alt. Az.
10 Jul -1.8 05:38:24 10° SSW 05:41:16 29° SE 05:44:09 10° ENE visible
11 Jul -0.8 04:46:20 11° SSE 04:47:50 14° SE 04:49:39 10° E visible
12 Jul -3.4 05:27:36 14° SW 05:30:21 83° SE 05:33:36 10° NE visible
13 Jul -2.3 04:36:13 31° SSE 04:36:49 35° SE 04:39:50 10° ENE visible
14 Jul -0.6 03:44:45 13° E 03:44:45 13° E 03:45:29 10° E visible
14 Jul -2.4 05:17:19 16° W 05:19:31 38° NW 05:22:35 10° NNE visible
